Waarnemingen

Advertentie
Mijn weer
Leucate/Semaphore, Frankrijk (7666): temperatuur & dauwpunt: 23.03.2017 21:00:00 - 29.03.2017 21:00:00 (CEST)Leucate/Semaphore, Frankrijk (7666): windsnelheid & windstoten: 23.03.2017 21:00:00 - 29.03.2017 21:00:00 (CEST)Leucate/Semaphore, Frankrijk (7666): windrichting: 23.03.2017 21:00:00 - 29.03.2017 21:00:00 (CEST)Leucate/Semaphore, Frankrijk (7666): luchtdruk: 23.03.2017 21:00:00 - 29.03.2017 21:00:00 (CEST)Leucate/Semaphore, Frankrijk (7666): zicht: 23.03.2017 21:00:00 - 29.03.2017 21:00:00 (CEST)Leucate/Semaphore, Frankrijk (7666): neerslag: 23.03.2017 21:00:00 - 29.03.2017 21:00:00 (CEST)
Datum & Tijd tt [°C] td [°C] ff [km/u] ff [kn] fx [km/u] fx [kn] dd ppp [hPa] vv [km] rr [mm]
29.03.2017 21:00:00 - - - - - - - - - -
29.03.2017 20:00:00 18,1 5,0 15 8 25 13 ZZW 1023,6 - 0,0
29.03.2017 19:00:00 18,6 6,1 16 9 26 14 Z 1023,5 - 0,0
29.03.2017 18:00:00 18,0 8,8 18 10 25 14 Z 1023,4 - 0,0
29.03.2017 17:00:00 18,2 8,5 13 7 19 11 ZZO 1023,7 - 0,0
29.03.2017 16:00:00 17,1 12,2 12 6 17 9 ZZO 1024,3 - 0,0
29.03.2017 15:00:00 17,5 12,6 11 6 18 10 ZZO 1024,8 - 0,0
29.03.2017 14:00:00 18,3 11,1 8 5 16 9 ZZO 1025,3 25 0,0
29.03.2017 13:00:00 17,5 11,5 7 4 16 9 ZO 1025,8 - 0,0
29.03.2017 12:00:00 20,1 11,3 7 4 24 13 NNO 1026,1 - 0,0
29.03.2017 11:00:00 20,4 7,7 16 8 29 16 NNW 1026,1 25 0,0
29.03.2017 10:00:00 19,1 8,1 13 7 26 14 NW 1026,0 - 0,0
29.03.2017 09:00:00 16,5 7,9 10 5 26 14 NW 1025,8 - 0,0
29.03.2017 08:00:00 14,4 6,7 21 11 30 16 WNW 1025,6 - 0,0
29.03.2017 07:00:00 13,8 6,6 21 11 27 15 WNW 1025,3 - 0,0
29.03.2017 06:00:00 13,4 6,7 18 10 24 13 WNW 1025,2 - 0,0
29.03.2017 05:00:00 13,5 6,6 17 9 21 11 WNW 1025,3 15 0,0
29.03.2017 04:00:00 13,5 6,4 13 7 25 13 NW 1025,5 - 0,0
29.03.2017 03:00:00 14,7 6,5 16 9 29 16 NW 1025,4 - 0,0
29.03.2017 02:00:00 15,1 6,6 17 9 29 15 NW 1025,6 - 0,0
29.03.2017 01:00:00 14,0 6,8 14 8 24 13 WNW 1025,8 - 0,0
29.03.2017 00:00:00 14,5 6,8 18 10 27 15 WNW 1025,6 - 0,0
28.03.2017 23:00:00 14,5 6,6 21 11 26 14 WNW 1025,6 - 0,0
28.03.2017 22:00:00 14,1 7,4 17 9 20 11 WNW 1025,4 - 0,0
28.03.2017 21:00:00 14,6 11,4 14 7 18 10 WZW 1024,8 - 0,0
28.03.2017 20:00:00 15,0 10,6 16 8 21 12 ZW 1024,5 - 0,0
28.03.2017 19:00:00 14,2 10,2 16 9 25 14 Z 1024,4 - 0,0
28.03.2017 18:00:00 14,6 10,2 20 11 24 13 Z 1024,3 - 0,0
28.03.2017 17:00:00 15,3 11,3 17 9 21 11 Z 1024,6 20 0,0
28.03.2017 16:00:00 14,8 11,0 16 9 19 10 ZZO 1025,0 - 0,0
28.03.2017 15:00:00 14,6 11,0 12 7 16 8 ZO 1025,5 - 0,0
28.03.2017 14:00:00 14,6 11,0 9 5 13 7 ZO 1026,1 - 0,0
28.03.2017 13:00:00 15,1 11,7 5 3 10 5 O 1026,6 - 0,0
28.03.2017 12:00:00 14,2 11,4 4 2 13 7 NO 1026,8 - 0,0
28.03.2017 11:00:00 13,5 11,5 6 4 16 9 NNO 1026,7 15 0,0
28.03.2017 10:00:00 12,4 11,3 10 5 20 11 N 1026,2 - 0,0
28.03.2017 09:00:00 12,0 10,9 10 5 22 12 NW 1025,7 - 0,0
28.03.2017 08:00:00 12,1 11,3 11 6 22 12 N 1025,0 15 0,0
28.03.2017 07:00:00 12,1 11,0 2 1 13 7 NNW 1024,5 - 0,0
28.03.2017 06:00:00 12,4 11,5 10 5 14 8 O 1024,2 - 0,0
28.03.2017 05:00:00 12,5 11,6 9 5 19 11 O 1023,8 22 0,0
28.03.2017 04:00:00 12,5 11,6 11 6 16 8 ZO 1023,7 - 0,0
28.03.2017 03:00:00 12,5 11,6 8 4 17 9 ZO 1023,8 - 0,0
28.03.2017 02:00:00 12,7 11,6 16 9 23 13 ZO 1023,8 - 0,0
28.03.2017 01:00:00 12,9 11,6 17 9 22 12 ZZO 1023,4 - 0,0
28.03.2017 00:00:00 12,9 11,6 20 11 25 14 OZO 1023,6 - 0,0
27.03.2017 23:00:00 13,0 11,6 20 11 23 13 ZO 1023,4 - 0,0
27.03.2017 22:00:00 13,0 11,2 17 9 27 14 OZO 1023,1 - 0,0
27.03.2017 21:00:00 13,1 11,3 21 11 35 19 ZZO 1022,7 - 0,0
27.03.2017 20:00:00 13,1 11,2 30 16 46 25 ZO 1022,2 22 0,0
27.03.2017 19:00:00 13,5 11,4 34 19 44 24 ZO 1021,6 - 0,0
27.03.2017 18:00:00 13,3 11,2 35 19 48 26 OZO 1021,1 - 0,0
27.03.2017 17:00:00 13,1 11,0 38 20 48 26 OZO 1020,4 - 0,4
27.03.2017 16:00:00 13,3 10,7 35 19 55 30 ZO 1020,6 - 0,0
27.03.2017 15:00:00 13,8 11,1 44 24 55 30 ZO 1020,9 - 0,0
27.03.2017 14:00:00 14,1 11,1 31 17 42 23 ZO 1021,1 20 0,0
27.03.2017 13:00:00 13,6 10,6 36 19 51 27 ZO 1021,5 - 0,0
27.03.2017 12:00:00 13,5 10,7 46 25 55 30 ZZO 1021,3 - 0,0
27.03.2017 11:00:00 13,6 10,9 40 22 50 27 ZO 1021,0 25 0,0
27.03.2017 10:00:00 13,5 11,4 35 19 46 25 ZO 1020,4 - 0,0
27.03.2017 09:00:00 12,9 11,1 32 17 41 22 OZO 1019,8 - 0,0
27.03.2017 08:00:00 12,6 11,0 29 16 45 24 OZO 1019,4 22 0,0
27.03.2017 07:00:00 12,6 11,0 35 19 45 24 OZO 1018,6 - 0,0
27.03.2017 06:00:00 12,3 10,9 31 17 40 22 ZO 1018,1 - 0,0
27.03.2017 05:00:00 11,7 10,8 15 8 22 12 O 1017,7 22 0,0
27.03.2017 04:00:00 10,9 10,3 6 3 11 6 NNO 1018,2 - 0,0
27.03.2017 03:00:00 10,3 9,5 10 5 19 10 ZW 1017,9 - 0,2
27.03.2017 02:00:00 11,4 10,5 11 6 16 9 ZZW 1018,2 - 0,0
27.03.2017 01:00:00 12,7 11,8 15 8 25 13 ZZO 1018,8 - 0,0
27.03.2017 00:00:00 12,7 11,6 18 10 23 12 OZO 1018,8 - 0,0
26.03.2017 23:00:00 12,8 11,5 14 8 22 12 O 1018,7 - 0,0
26.03.2017 22:00:00 12,3 11,2 9 5 16 9 NNO 1018,3 - 0,0
26.03.2017 21:00:00 12,0 10,4 6 4 15 8 N 1017,9 - 0,0
26.03.2017 20:00:00 12,4 10,1 8 4 14 8 NW 1017,6 25 0,0
26.03.2017 19:00:00 14,0 10,2 6 3 15 8 N 1017,6 - 0,0
26.03.2017 18:00:00 14,7 9,7 5 3 18 10 NO 1017,8 - 0,0
26.03.2017 17:00:00 13,6 8,6 8 4 24 13 NO 1017,8 20 0,0
26.03.2017 16:00:00 13,9 8,3 8 5 32 18 ONO 1017,9 - 0,0
26.03.2017 15:00:00 14,1 9,3 11 6 27 15 NNO 1018,3 - 0,0
26.03.2017 14:00:00 13,8 10,6 16 9 34 19 N 1018,8 - 0,0
26.03.2017 13:00:00 13,4 10,6 21 11 38 20 N 1019,1 - 0,0
26.03.2017 12:00:00 12,6 9,6 22 12 35 19 NNO 1019,0 - 0,0
26.03.2017 11:00:00 12,1 8,9 16 9 30 16 N 1018,9 20 0,0
26.03.2017 10:00:00 10,7 7,9 18 10 30 16 NNW 1018,6 - 0,0
26.03.2017 09:00:00 9,2 6,8 16 8 27 15 NW 1018,0 - 0,0
26.03.2017 08:00:00 7,8 5,9 16 9 31 17 NNW 1017,3 - 0,0
26.03.2017 07:00:00 7,6 5,7 19 11 33 18 NW 1016,4 - 0,0
26.03.2017 06:00:00 7,4 5,0 16 9 25 14 NW 1016,5 - 0,0
26.03.2017 05:00:00 7,5 4,1 13 7 19 11 NW 1016,6 22 0,0
26.03.2017 04:00:00 7,8 2,9 7 4 10 5 NNW 1016,8 - 0,0
26.03.2017 03:00:00 8,3 2,5 5 3 16 9 W 1016,9 - 0,0
26.03.2017 02:00:00 7,9 2,6 12 7 18 10 W 1016,7 - 0,0
26.03.2017 01:00:00 9,5 3,7 9 5 43 23 WZW 1016,6 - 0,0
26.03.2017 00:00:00 12,1 6,6 39 21 51 28 Z 1015,5 - 0,0
25.03.2017 23:00:00 12,3 6,3 46 25 60 33 Z 1015,3 - 0,0
25.03.2017 22:00:00 12,6 6,8 50 27 64 34 ZZO 1014,9 - 0,0
25.03.2017 21:00:00 12,7 6,7 39 21 53 29 ZO 1014,3 - 0,0
25.03.2017 20:00:00 13,3 8,1 35 19 55 30 ZZO 1014,0 25 0,0
25.03.2017 19:00:00 13,2 9,6 50 27 61 33 ZZO 1014,0 - 0,0
25.03.2017 18:00:00 13,1 9,5 53 29 64 34 ZO 1013,7 - 0,0
25.03.2017 17:00:00 12,9 9,3 52 28 68 37 ZO 1013,9 20 0,0
25.03.2017 16:00:00 12,7 9,3 55 30 69 37 ZO 1013,9 - 0,0
25.03.2017 15:00:00 13,1 7,1 47 26 77 42 ZO 1014,1 - 0,0
25.03.2017 14:00:00 13,6 5,7 61 33 83 45 Z 1012,9 25 0,0
25.03.2017 13:00:00 12,6 5,7 73 40 103 56 Z 1011,4 - 0,0
25.03.2017 12:00:00 12,1 4,8 75 40 100 54 Z 1009,6 - 0,0
25.03.2017 11:00:00 10,4 7,1 49 26 67 36 ZZO 1009,4 18 0,0
25.03.2017 10:00:00 10,3 7,5 55 30 74 40 ZO 1009,3 - 0,0
25.03.2017 09:00:00 11,0 8,9 50 27 63 34 ZO 1009,0 - 0,4
25.03.2017 08:00:00 10,9 10,7 50 27 108 58 ZO 1008,3 5 12,8
25.03.2017 07:00:00 12,3 12,0 45 25 104 56 OZO 1008,3 - 9,7
25.03.2017 06:00:00 11,4 10,3 42 23 101 55 ZO 1010,2 - 5,9
25.03.2017 05:00:00 13,7 11,6 58 31 79 43 OZO 1010,0 8 1,4
25.03.2017 04:00:00 13,9 11,8 52 28 74 40 O 1010,5 - 0,0
25.03.2017 03:00:00 10,0 8,9 29 16 42 23 N 1013,0 - 0,0
25.03.2017 02:00:00 9,6 8,7 26 14 39 21 N 1014,6 - 0,0
25.03.2017 01:00:00 8,0 7,1 25 13 37 20 NNW 1015,2 - 1,4
25.03.2017 00:00:00 7,6 6,5 24 13 42 23 NW 1015,7 - 1,8
24.03.2017 23:00:00 7,6 6,5 24 13 46 25 NW 1015,7 - 0,6
24.03.2017 22:00:00 7,7 6,5 26 14 44 24 NW 1015,6 - 0,4
24.03.2017 21:00:00 7,9 6,7 21 11 46 25 NW 1015,5 - 1,4
24.03.2017 20:00:00 8,0 6,8 18 10 37 20 NW 1015,1 8 1,2
24.03.2017 19:00:00 8,8 7,9 19 10 36 19 WNW 1014,6 - 1,8
24.03.2017 18:00:00 9,1 8,2 19 10 33 18 WNW 1015,5 - 4,1
24.03.2017 17:00:00 9,9 8,7 18 10 31 17 NNW 1015,4 12 2,4
24.03.2017 16:00:00 10,3 8,2 20 11 30 16 NNW 1015,3 - 0,4
24.03.2017 15:00:00 11,5 9,2 4 2 10 5 N 1015,6 20 0,4
24.03.2017 14:00:00 11,8 9,4 8 5 18 10 Z 1016,1 20 0,2
24.03.2017 13:00:00 12,2 9,9 15 8 23 12 ZZO 1015,9 - 0,2
24.03.2017 12:00:00 12,2 10,3 16 9 32 17 ZO 1016,0 - 0,6
24.03.2017 11:00:00 12,5 8,4 23 13 46 25 ZZO 1016,1 18 0,0
24.03.2017 10:00:00 12,4 9,0 31 17 40 22 ZO 1015,1 - 0,0
24.03.2017 09:00:00 12,6 8,3 31 17 39 21 ZZO 1014,7 - 0,0
24.03.2017 08:00:00 12,4 7,9 29 16 35 19 ZO 1014,3 22 0,0
24.03.2017 07:00:00 12,1 7,6 23 12 27 15 ZO 1013,5 - 0,0
24.03.2017 06:00:00 8,2 6,5 6 3 14 8 NW 1013,8 - 0,0
24.03.2017 05:00:00 7,6 5,7 11 6 16 8 NW 1013,2 20 0,0
24.03.2017 04:00:00 8,9 6,7 10 5 15 8 N 1013,6 - 0,0
24.03.2017 03:00:00 8,3 5,8 10 6 15 8 NW 1013,7 - 0,0
24.03.2017 02:00:00 9,4 7,2 6 3 11 6 N 1013,6 - 0,0
24.03.2017 01:00:00 9,1 6,7 9 5 13 7 N 1013,9 - 0,0
24.03.2017 00:00:00 9,2 6,3 11 6 17 9 NNW 1013,7 - 0,0
23.03.2017 23:00:00 9,2 5,7 12 6 17 9 NW 1013,2 - 0,0
23.03.2017 22:00:00 10,8 6,5 11 6 21 11 NNW 1012,4 - 0,0
23.03.2017 21:00:00 - - - - - - - - - -

tt = temperatuur
td = dauwpunt
ff = windsnelheid
fx = windstoten
dd = windrichting
ppp = luchtdruk
vv = zicht
rr = neerslag

Weerstations in de omgeving